Eureka, NV

10:03 AM PDT on August 23, 2017 (GMT -0700)
Eureka

Weather History for KP68 - January, 2014

Change the Weather History Date:

Saturday, January 4, 2014

  Actual Average Record
Temperature  
Mean Temperature 22 °F 23 °F  
Max Temperature 35 °F 37 °F 62 °F (2012)
Min Temperature 8 °F 9 °F -18 °F (2009)
Degree Days  
Heating Degree Days 43 42  
Month to date heating degree days 141 168  
Since 1 July heating degree days 3092 3174  
Cooling Degree Days 0 0  
Month to date cooling degree days 0 0  
Year to date cooling degree days 0 0  
Moisture  
Dew Point 11 °F    
Average Humidity 60    
Maximum Humidity 80    
Minimum Humidity 39    
Precipitation  
Precipitation 0.00 in 0.03 in 0.68 in (2007)
Month to date precipitation 0.00 0.10  
Year to date precipitation 0.00 0.10  
Sea Level Pressure  
Sea Level Pressure 30.19 in    
Wind  
Wind Speed 7 mph (NNE)    
Max Wind Speed 20 mph    
Max Gust Speed 26 mph    
T = Trace of Precipitation, MM = Missing Value Source: NWS Daily Summary

Daily Weather History Graph

Daily Weather History Graph

Search for Another Location

Airport or City:

Trip Planner

Search our weather history database for the weather conditions in past years. The results will help you decide how hot, cold, wet, or windy it might be!

Date:

Astronomy

Jan. 04, 2014 Rise Set
Actual Time 7:04 AM PST 4:33 PM PST
Civil Twilight 6:34 AM PST 5:03 PM PST
Nautical Twilight 6:00 AM PST 5:37 PM PST
Astronomical Twilight 5:28 AM PST 6:09 PM PST
Moon 9:13 AM PST (1/4) 8:57 PM PST (1/4)
Length of Visible Light 10h 29m
Length of Day
9h 28m
Waxing Crescent, 16% of the Moon is Illuminated
Jan 4
Waxing Crescent
Jan 7
First Quarter
Jan 15
Full
Jan 23
Last Quarter
Jan 30
New

Hourly Weather History & Observations

Time (PST) Temp. Windchill Dew Point Humidity Pressure Visibility Wind Dir Wind Speed Gust Speed Precip Events Conditions
12:53 AM 30.0 °F - 21.0 °F 69% 29.88 in - Calm Calm - N/A   Unknown
1:53 AM 27.0 °F - 19.0 °F 72% 29.91 in - Calm Calm - N/A   Unknown
2:39 AM 32.0 °F 20.8 °F 21.0 °F 64% 29.99 in - NNW 17.3 mph 25.3 mph N/A   Unknown
2:53 AM 30.9 °F 20.7 °F 21.0 °F 67% 29.94 in - NNW 13.8 mph - N/A   Unknown
3:53 AM 27.0 °F 18.7 °F 19.0 °F 72% 29.99 in - East 8.1 mph - N/A   Unknown
4:53 AM 26.1 °F 16.8 °F 17.1 °F 69% 30.03 in - NW 9.2 mph - N/A   Unknown
5:53 AM 24.1 °F 19.7 °F 14.0 °F 65% 30.07 in - NE 3.5 mph - N/A   Unknown
6:53 AM 19.9 °F 11.1 °F 10.9 °F 68% 30.13 in - North 6.9 mph - N/A   Unknown
7:53 AM 21.9 °F 13.4 °F 10.9 °F 63% 30.19 in - NE 6.9 mph - N/A   Unknown
8:53 AM 25.0 °F 15.5 °F 12.0 °F 58% 30.19 in - North 9.2 mph - N/A   Unknown
9:53 AM 28.0 °F 20.8 °F 12.9 °F 53% 30.21 in - NNE 6.9 mph - N/A   Unknown
10:53 AM 30.0 °F 21.1 °F 10.9 °F 45% 30.20 in - NNE 10.4 mph - N/A   Unknown
11:53 AM 30.9 °F 22.2 °F 10.9 °F 43% 30.18 in - NE 10.4 mph - N/A   Unknown
12:53 PM 30.9 °F 21.7 °F 9.0 °F 40% 30.19 in - NNE 11.5 mph - N/A   Unknown
1:53 PM 30.9 °F 21.2 °F 9.0 °F 40% 30.22 in - NNE 12.7 mph - N/A   Unknown
2:53 PM 30.0 °F 19.5 °F 8.1 °F 40% 30.22 in - NNE 13.8 mph - N/A   Unknown
3:53 PM 27.0 °F 18.0 °F 9.0 °F 47% 30.27 in - NE 9.2 mph - N/A   Unknown
4:53 PM 23.0 °F 14.7 °F 7.0 °F 50% 30.29 in - NW 6.9 mph - N/A   Unknown
5:53 PM 19.9 °F 13.4 °F 8.1 °F 60% 30.32 in - NNE 4.6 mph - N/A   Unknown
6:53 PM 14.0 °F 5.1 °F 6.1 °F 71% 30.38 in - South 5.8 mph - N/A   Unknown
7:53 PM 10.9 °F - 5.0 °F 77% 30.39 in - Calm Calm - N/A   Unknown
8:53 PM 10.0 °F 1.8 °F 3.9 °F 76% 30.41 in - SSE 4.6 mph - N/A   Unknown
9:53 PM 10.9 °F 2.9 °F 3.9 °F 73% 30.40 in - SSW 4.6 mph - N/A   Unknown
10:53 PM 9.0 °F -4.2 °F 3.0 °F 77% 30.40 in - South 9.2 mph - N/A   Unknown
11:53 PM 8.1 °F -2.0 °F 1.9 °F 76% 30.42 in - South 5.8 mph - N/A   Unknown